Weather History for Philip, SD

Change the Weather History Date:

Thursday, July 11, 2013

  Actual Average Record
Temperature  
Mean Temperature 84 °F 74 °F  
Max Temperature 105 °F 89 °F 110 °F (1974)
Min Temperature 62 °F 60 °F 47 °F (1975)
Degree Days  
Heating Degree Days 0 0  
Month to date heating degree days 0 3  
Since 1 June heating degree days 64 66  
Since 1 July heating degree days 0 3  
Cooling Degree Days 19 9  
Month to date cooling degree days 111 91  
Year to date cooling degree days 259 241  
Since 1 June cooling degree days 238 214  
Growing Degree Days 33 (Base 50)    
Moisture  
Dew Point 60 °F    
Average Humidity 53    
Maximum Humidity 87    
Minimum Humidity 18    
Precipitation  
Precipitation 0.00 in 0.08 in 0.60 in (1992)
Month to date precipitation 0.19 0.87  
Year to date precipitation 7.65 10.72  
Sea Level Pressure  
Sea Level Pressure 29.78 in    
Wind  
Wind Speed 11 mph (SSE)    
Max Wind Speed 24 mph    
Max Gust Speed 31 mph    
Visibility 10 miles    
Events      
T = Trace of Precipitation, MM = Missing Value Source: NWS Daily Summary

Daily Weather History Graph

Daily Weather History Graph

Search for Another Location

Airport:

Trip Planner

Search our weather history database for the weather conditions in past years. The results will help you decide how hot, cold, wet, or windy it might be!

Date:

Astronomy

Jul. 11, 2013 Rise Set
Actual Time 5:14 AM MDT 8:29 PM MDT
Civil Twilight 4:38 AM MDT 9:04 PM MDT
Nautical Twilight 3:52 AM MDT 9:50 PM MDT
Astronomical Twilight 2:56 AM MDT 10:46 PM MDT
Moon 8:43 AM MDT (7/11) 10:00 PM MDT (7/11)
Length of Visible Light 16h 25m
Length of Day
15h 15m
Waxing Crescent, 11% of the Moon is Illuminated
Jul 11
Waxing Crescent
Jul 15
First Quarter
Jul 22
Full
Jul 29
Last Quarter
Aug 6
New

Hourly Weather History & Observations

Time (MDT) Temp. Heat Index Dew Point Humidity Pressure Visibility Wind Dir Wind Speed Gust Speed Precip Events Conditions
12:55 AM 66.9 °F - 63.0 °F 87% 29.90 in 10.0 mi Calm Calm - N/A   Clear
1:55 AM 66.0 °F - 62.1 °F 87% 29.89 in 10.0 mi Calm Calm - N/A   Scattered Clouds
2:55 AM 64.0 °F - 61.0 °F 90% 29.88 in 10.0 mi ESE 5.8 mph - N/A   Clear
3:55 AM 64.0 °F - 61.0 °F 90% 29.88 in 10.0 mi ENE 4.6 mph - N/A   Partly Cloudy
4:55 AM 66.0 °F - 60.1 °F 81% 29.86 in 10.0 mi SSE 3.5 mph - N/A   Clear
5:55 AM 66.9 °F - 60.1 °F 79% 29.87 in 10.0 mi Calm Calm - N/A   Clear
6:55 AM 71.1 °F - 62.1 °F 73% 29.86 in 10.0 mi SSE 5.8 mph - N/A   Clear
7:55 AM 77.0 °F - 64.0 °F 64% 29.85 in 10.0 mi SSE 9.2 mph - N/A   Clear
8:55 AM 82.0 °F 83.4 °F 64.0 °F 54% 29.83 in 10.0 mi South 9.2 mph - N/A   Clear
9:55 AM - - - N/A% 29.88 in - North - - N/A   Unknown
10:55 AM - - - N/A% 29.86 in - North - - N/A   Unknown
11:55 AM 95.0 °F 95.2 °F 61.0 °F 32% 29.77 in 10.0 mi SSE 6.9 mph 19.6 mph N/A   Clear
12:55 PM 98.1 °F 98.6 °F 61.0 °F 29% 29.75 in 10.0 mi SSE 15.0 mph 19.6 mph N/A   Clear
1:55 PM 100.0 °F 100.7 °F 60.1 °F 27% 29.73 in 10.0 mi SE 17.3 mph 23.0 mph N/A   Clear
2:55 PM 102.9 °F 102.4 °F 57.0 °F 22% 29.71 in 10.0 mi South 16.1 mph 26.5 mph N/A   Clear
3:55 PM 102.9 °F 100.9 °F 53.1 °F 19% 29.69 in 10.0 mi South 16.1 mph 26.5 mph N/A   Clear
4:55 PM 102.9 °F - 51.1 °F 18% 29.67 in 10.0 mi South 17.3 mph 24.2 mph N/A   Clear
5:55 PM 100.9 °F 99.6 °F 55.0 °F 22% 29.65 in 10.0 mi South 18.4 mph 25.3 mph N/A   Clear
6:55 PM 97.0 °F 95.3 °F 55.9 °F 25% 29.65 in 10.0 mi South 15.0 mph - N/A   Clear
7:55 PM 90.0 °F 89.7 °F 60.1 °F 37% 29.66 in 10.0 mi South 12.7 mph - N/A   Clear
8:55 PM 87.1 °F 86.5 °F 59.0 °F 39% 29.67 in 10.0 mi South 9.2 mph - N/A   Clear
9:55 PM 82.9 °F 83.2 °F 60.1 °F 46% 29.76 in 10.0 mi SSE 6.9 mph - N/A   Clear
10:55 PM 82.9 °F 83.7 °F 62.1 °F 49% 29.75 in 10.0 mi South 12.7 mph 20.7 mph N/A   Clear
11:55 PM 84.0 °F 84.5 °F 62.1 °F 47% 29.66 in 10.0 mi South 16.1 mph - N/A   Clear